EW1898 Weather Reports


Display with metric or nautical units.
time (UTC)temp
F
wind
direction
speed
MPH
gust
MPH
rain 1hr
in
rain 24hr
in
rain mn
in
humidity
%
barometer
mb
20200525090046 47 262 0.0 1.0 0.00 0.00 0.00 95 1025.0
20200525084603 47 261 0.0 1.0 0.00 0.00 0.00 95 1025.1
20200525083107 47 234 0.0 1.0 0.00 0.00 0.00 94 1025.2
20200525081537 47 262 0.0 1.0 0.00 0.00 0.00 94 1025.2
20200525080108 47 265 0.0 1.0 0.00 0.00 0.00 94 1025.1
20200525074528 47 55 0.0 1.0 0.00 0.00 0.00 94 1025.2
20200525073128 47 55 0.0 2.0 0.00 0.00 0.00 93 1025.1
20200525071542 47 55 0.0 3.0 0.00 0.00 0.00 93 1025.1
20200525070024 47 89 0.0 2.0 0.00 0.00 0.00 92 1025.3
20200525064529 48 265 0.0 2.0 0.00 0.00 0.00 91 1025.3
20200525063018 48 257 0.0 1.0 0.00 0.00 0.00 90 1025.2
20200525061515 48 132 0.0 2.0 0.00 0.00 0.00 90 1025.2
20200525060043 48 127 0.0 2.0 0.00 0.00 0.00 90 1025.2
20200525054533 48 127 0.0 1.0 0.00 0.00 0.00 90 1025.0
20200525053019 48 127 0.0 1.0 0.00 0.00 0.00 89 1025.3
20200525051522 48 127 0.0 0.0 0.00 0.00 0.00 89 1025.6
20200525050015 48 127 0.0 1.0 0.00 0.00 0.00 89 1025.7
20200525044519 48 127 0.0 1.0 0.00 0.00 0.00 89 1025.8
20200525041708 48 115 0.0 0.0 0.00 0.00 0.00 91 1025.9
20200525040157 48 114 0.0 2.0 0.00 0.00 0.00 92 1025.9
20200525034731 49 115 0.0 0.0 0.00 0.00 0.00 91 1025.8
20200525033207 49 115 0.0 0.0 0.00 0.00 0.00 91 1025.9
20200525031713 49 114 0.0 0.0 0.00 0.00 0.00 91 1026.0
20200525030129 48 115 0.0 0.0 0.00 0.00 0.00 91 1026.0
20200525024657 47 115 0.0 0.0 0.00 0.00 0.00 92 1026.1
20200525023144 46 115 0.0 0.0 0.00 0.00 0.00 90 1026.3
20200525021635 47 115 0.0 0.0 0.00 0.00 0.00 88 1026.1
20200525020318 47 115 0.0 0.0 0.00 0.00 0.00 87 1026.1
20200525014619 48 115 0.0 0.0 0.00 0.00 0.00 85 1026.2
20200525013219 48 115 0.0 1.0 0.00 0.00 0.00 83 1026.1
20200525011608 49 115 0.0 0.0 0.00 0.00 0.00 79 1025.9
20200525010159 50 114 0.0 1.0 0.00 0.00 0.00 76 1025.7
20200525004644 51 336 0.0 3.0 0.00 0.00 0.00 73 1025.7
20200525003140 52 89 0.0 1.0 0.00 0.00 0.00 71 1025.6
20200525001625 53 92 0.0 2.0 0.00 0.00 0.00 71 1025.6
20200525000157 54 37 0.0 4.0 0.00 0.00 0.00 69 1025.6
20200524234613 55 274 0.0 3.0 0.00 0.00 0.00 68 1025.7
20200524233106 56 272 0.0 2.0 0.00 0.00 0.00 67 1025.5
20200524231620 57 307 0.0 3.0 0.00 0.00 0.00 65 1025.5
20200524230137 57 52 1.0 4.0 0.00 0.00 0.00 61 1025.6
20200524224733 58 317 0.0 4.0 0.00 0.00 0.00 55 1025.6
20200524223118 59 269 0.0 5.0 0.00 0.00 0.00 48 1025.5
20200524220121 60 4 0.0 3.0 0.00 0.00 0.00 42 1025.5
20200524214634 61 270 0.0 4.0 0.00 0.00 0.00 50 1025.5
20200524213048 61 278 0.0 4.0 0.00 0.00 0.00 51 1025.5
20200524211559 60 282 0.0 6.0 0.00 0.00 0.00 51 1025.7
20200524210148 60 75 2.0 8.0 0.00 0.00 0.00 49 1025.7
20200524204555 60 266 0.0 3.0 0.00 0.00 0.00 46 1025.7
20200524203137 61 357 1.0 6.0 0.00 0.00 0.00 44 1025.6
20200524201540 60 302 1.0 7.0 0.00 0.00 0.00 43 1025.6
20200524200125 60 125 3.0 6.0 0.00 0.00 0.00 42 1025.7
20200524194606 61 53 2.0 7.0 0.00 0.00 0.00 43 1025.7
20200524193105 61 290 0.0 7.0 0.00 0.00 0.00 45 1025.8
20200524191548 61 280 1.0 7.0 0.00 0.00 0.00 44 1026.0
20200524190037 61 106 0.0 6.0 0.00 0.00 0.00 42 1026.1
20200524184555 62 262 1.0 7.0 0.00 0.00 0.00 39 1026.2
20200524183120 61 257 1.0 0.0 0.00 0.00 0.00 39 1026.3
20200524181550 61 100 3.0 9.0 0.00 0.00 0.00 40 1026.3
20200524180050 61 132 3.0 8.0 0.00 0.00 0.00 36 1026.5
20200524174720 61 261 1.0 7.0 0.00 0.00 0.00 41 1026.6
20200524173109 61 114 1.0 7.0 0.00 0.00 0.00 42 1026.7
20200524171531 60 232 1.0 7.0 0.00 0.00 0.00 43 1026.9
20200524170041 60 336 1.0 6.0 0.00 0.00 0.00 41 1027.1
20200524164612 60 275 2.0 8.0 0.00 0.00 0.00 41 1027.0
20200524163046 60 95 2.0 9.0 0.00 0.00 0.00 41 1027.1
20200524161547 60 132 3.0 7.0 0.00 0.00 0.00 40 1027.3
20200524160036 60 82 0.0 6.0 0.00 0.00 0.00 41 1027.6
20200524154537 60 79 0.0 6.0 0.00 0.00 0.00 39 1027.4
20200524153100 59 221 0.0 12.0 0.00 0.00 0.00 39 1027.4
20200524150022 59 137 0.0 4.0 0.00 0.00 0.00 48 1027.6
20200524144521 58 254 2.0 7.0 0.00 0.00 0.00 45 1027.5
20200524143014 58 280 1.0 6.0 0.00 0.00 0.00 47 1027.6
20200524141510 56 57 3.0 8.0 0.00 0.00 0.00 48 1027.6
20200524140010 56 184 1.0 4.0 0.00 0.00 0.00 52 1027.6
20200524134507 56 163 2.0 6.0 0.00 0.00 0.00 54 1027.8
20200524133137 55 257 1.0 4.0 0.00 0.00 0.00 56 1027.8
20200524131650 54 310 1.0 6.0 0.00 0.00 0.00 63 1027.6
20200524130110 53 97 2.0 7.0 0.00 0.00 0.00 64 1027.4
20200524124619 52 258 1.0 7.0 0.00 0.00 0.00 65 1027.3
20200524123122 51 239 2.0 8.0 0.00 0.00 0.00 66 1027.2
20200524121619 51 82 2.0 11.0 0.00 0.00 0.00 68 1027.4
20200524120058 50 99 3.0 6.0 0.00 0.00 0.00 70 1027.3
20200524114559 49 292 0.0 6.0 0.00 0.00 0.00 75 1027.2
20200524113128 49 135 2.0 9.0 0.00 0.00 0.00 76 1027.1
20200524111623 48 102 2.0 6.0 0.00 0.00 0.00 79 1027.1
20200524110115 47 137 0.0 3.0 0.00 0.00 0.00 82 1027.5
20200524104647 45 250 0.0 2.0 0.00 0.00 0.00 85 1027.3
20200524103130 43 288 0.0 2.0 0.00 0.00 0.00 91 1027.3
20200524101534 40 298 0.0 0.0 0.00 0.00 0.00 94 1027.0
20200524100023 39 298 0.0 1.0 0.00 0.00 0.00 94 1026.7
20200524094536 39 265 0.0 0.0 0.00 0.00 0.00 93 1026.7
20200524093015 40 266 0.0 0.0 0.00 0.00 0.00 92 1026.7
20200524091535 40 265 0.0 1.0 0.00 0.00 0.00 92 1026.5